Zurück zum Katalog

CZ-6A DEB

AktivPO
NORAD 60784·DEBRIS·🇨🇳 China

Gestartet Aug 6, 2024 von Taiyuan Satellite Launch Center

Loading…

Nächste Überflüge (nächste 24 Stunden)

TLE

AktuellSource: Space-Track

Epoche: Sep 14, 2026, 06:31 UTC

1 60784U 24140FK  26257.27176533  .00000766  00000-0  24590-3 0  9994
2 60784  89.0025 262.8628 0069553  73.9994 286.8853 14.37119893107345

Verfolge CZ-6A DEB in Echtzeit mit AllMySat

Download on the App Store